Location: Napier
(39.4830°S, 176.9170°E)
Time: 17:19:26
(UTC+13:00)

Cosmos 2237 - Pass Details

Date: 24 January 2019
Orbit: 845 x 857 km, 70.8° (Epoch: 22 February)

Event Time Altitude Azimuth Distance (km) Brightness Sun altitude
Exits shadow 22:25:17 19° 1° (N) 1,911 5.6 -17.9°
Maximum altitude 22:29:14 55° 72° (ENE) 1,025 4.3 -18.5°
Drops below altitude 10° 22:34:50 10° 148° (SSE) 2,505 6.8 -19.2°
Sets 22:37:21 0° 152° (SSE) 3,445 7.6 -19.5°
